Вернуться в каталог

PIESAT-2 10

АктивенНаукаSSO
NORAD 62334·PAYLOAD·🇨🇳 China

Запущен Dec 16, 2024 с Taiyuan Satellite Launch Center

Loading…

Ближайшие Пролёты (ближайшие 24 часа)

TLE

СвежийSource: Space-Track

Эпоха: Sep 14, 2026, 14:41 UTC

1 62334U 24241B   26257.61187029  .00006772  00000-0  36262-3 0  9991
2 62334  97.5404 204.8690 0001943  76.9075 283.2374 15.15346411 96341

Отслеживайте PIESAT-2 10 в реальном времени с AllMySat

Download on the App Store